Location: Tucson
(32.2217°N, 110.9265°W)
Time: 17:35:34
(UTC-07:00)

Transit 2A Rocket - Pass Details

Date: 11 August 2022
Orbit: 593 x 908 km, 66.7° (Epoch: 26 September)

Event Time Altitude Azimuth Distance (km) Brightness Sun altitude
Rises 02:46:01 0° 360° (N) 2,871 8.6 -32.3°
Reaches altitude 10° 02:50:24 10° 42° (NE) 2,018 8.1 -31.7°
Maximum altitude 02:51:14 10° 52° (NE) 2,001 8.0 -31.6°
Drops below altitude 10° 02:52:05 10° 63° (ENE) 2,044 8.0 -31.5°
Sets 02:56:41 0° 104° (ESE) 3,039 8.5 -30.8°
